Location: Buchloe
(48.0161°N, 10.7316°E)
Time: 04:11:50
(UTC+02:00)

ISS - Pass Details

Date: 06 July 2025
Orbit: 413 x 417 km, 51.6° (Epoch: 12 July)

Event Time Altitude Azimuth Distance (km) Brightness Sun altitude
Rises 22:48:10 0° 210° (SSW) 2,337 -0.2 -11.4°
Reaches altitude 10° 22:50:30 10° 195° (SSW) 1,480 -1.3 -11.7°
Maximum altitude 22:53:12 23° 141° (SE) 923 -2.6 -11.9°
Drops below altitude 10° 22:55:56 10° 86° (E) 1,490 -1.3 -12.2°
Sets 22:58:17 0° 72° (ENE) 2,357 -0.1 -12.4°
